Fort Indiantown Gap, PA

11:32 AM EST on December 08, 2019 (GMT -0500)
Muir Army Air Field

Weather History for KMUI - November, 2019

Change the Weather History Date:

Wednesday, November 13, 2019

  Actual Average Record
Temperature  
Mean Temperature 27 °F -  
Max Temperature 33 °F 50 °F 62 °F (2010)
Min Temperature 21 °F 34 °F 21 °F (1996)
Degree Days  
Heating Degree Days 38    
Moisture  
Dew Point 11 °F    
Average Humidity 52    
Maximum Humidity 69    
Minimum Humidity 41    
Precipitation  
Precipitation 0.00 in - - ()
Sea Level Pressure  
Sea Level Pressure 30.38 in    
Wind  
Wind Speed 5 mph ()    
Max Wind Speed 12 mph    
Max Gust Speed 20 mph    
Visibility 10.0 miles    
Events      
Averages and records for this station are not official NWS values.
T = Trace of Precipitation, MM = Missing Value Source: Averaged Metar Reports

Daily Weather History Graph

Daily Weather History Graph

Search for Another Location

Airport or City:

Astronomy

Nov. 13, 2019 Rise Set
Actual Time 6:49 AM EST 4:50 PM EST
Civil Twilight 6:20 AM EST 5:19 PM EST
Nautical Twilight 5:47 AM EST 5:52 PM EST
Astronomical Twilight 5:15 AM EST 6:24 PM EST
Moon 5:52 PM EST (11/13) 7:40 AM EST (11/13)
Length of Visible Light 10h 59m
Length of Day
10h 00m
Full, 99% of the Moon is Illuminated
Nov 13
Full
Nov 19
Last Quarter
Nov 26
New
Dec 4
First Quarter
Dec 12
Full

Hourly Weather History & Observations

Time (EST) Temp. Windchill Dew Point Humidity Pressure Visibility Wind Dir Wind Speed Gust Speed Precip Events Conditions
12:56 AM 23.5 °F 15.4 °F 2.7 °F 41% 30.27 in 10.0 mi WNW 6.9 mph - N/A   Clear
1:56 AM 23.2 °F 17.2 °F 3.9 °F 44% 30.29 in 10.0 mi NW 4.6 mph - N/A   Clear
2:56 AM 22.8 °F 14.5 °F 5.5 °F 48% 30.30 in 10.0 mi West 6.9 mph - N/A   Clear
4:56 AM 21.9 °F 12.5 °F 9.3 °F 58% 30.32 in 10.0 mi NW 8.1 mph - N/A   Clear
5:56 AM 21.9 °F 13.4 °F 10.2 °F 61% 30.34 in 10.0 mi West 6.9 mph - N/A   Clear
6:56 AM 21.9 °F 13.4 °F 10.6 °F 62% 30.36 in 10.0 mi West 6.9 mph - N/A   Clear
8:56 AM 25.9 °F 18.2 °F 11.1 °F 54% 30.40 in 10.0 mi West 6.9 mph - N/A   Scattered Clouds
9:56 AM 27.3 °F 19.9 °F 11.1 °F 51% 30.41 in 10.0 mi North 6.9 mph - N/A   Scattered Clouds
10:56 AM 29.3 °F 19.6 °F 11.5 °F 47% 30.43 in 10.0 mi WNW 11.5 mph 16.1 mph N/A   Scattered Clouds
11:56 AM 30.2 °F 20.8 °F 10.9 °F 45% 30.42 in 10.0 mi NW 11.5 mph 19.6 mph N/A   Scattered Clouds
12:56 PM 31.3 °F 22.7 °F 11.3 °F 44% 30.41 in 10.0 mi North 10.4 mph 19.6 mph N/A   Scattered Clouds
1:56 PM 33.4 °F 28.1 °F 12.2 °F 42% 30.39 in 10.0 mi West 5.8 mph - N/A   Scattered Clouds
2:56 PM 32.4 °F - 10.8 °F 41% 30.39 in 10.0 mi Calm Calm - N/A   Scattered Clouds
3:56 PM 32.2 °F 27.7 °F 10.6 °F 41% 30.39 in 10.0 mi NNW 4.6 mph - N/A   Partly Cloudy
4:56 PM 30.4 °F 26.9 °F 10.0 °F 43% 30.40 in 10.0 mi NW 3.5 mph - N/A   Partly Cloudy
5:56 PM 27.9 °F - 12.0 °F 52% 30.40 in 10.0 mi Calm Calm - N/A   Mostly Cloudy
6:56 PM 27.7 °F - 14.0 °F 57% 30.42 in 10.0 mi Calm Calm - N/A   Scattered Clouds
8:56 PM 25.3 °F - 16.5 °F 69% 30.42 in 10.0 mi Calm Calm - N/A   Overcast
9:56 PM 26.4 °F - 15.8 °F 64% 30.43 in 10.0 mi Calm Calm - N/A   Overcast
10:56 PM 26.2 °F - 16.3 °F 66% 30.43 in 10.0 mi Calm Calm - N/A   Overcast
11:56 PM 26.1 °F 21.9 °F 16.0 °F 66% 30.42 in - NNE 3.5 mph - N/A   Unknown